User: anonymous
Location: Clinton NY
(43.0598°N, 75.3602°W)
Time: 20:13:45
(UTC-04:00)
Language:

Iridium 42 - Orbit

View from above orbital plane
View from above orbital plane
View from above satellite
View from above satellite

Ground track
Ground track

The orbit data is extracted from the following two-line orbital elements,

1 25077U 97077A   14107.43707555  .00000222  00000-0  72293-4 0  7632
2 25077 086.3964 145.5114 0002423 107.2495 252.8966 14.34215647856373
Epoch (UTC): 17 April 2014 10:29:23
Eccentricity: 0.0002423
inclination: 86.3964°
perigee height: 776 km
apogee height: 779 km
right ascension of ascending node: 145.5114°
argument of perigee: 107.2495°
revolutions per day: 14.34215647
mean anomaly at epoch: 252.8966°
orbit number at epoch: 85637

The dashed part of the orbit path shows where the satellite is in the earth's shadow,  

DLR